Cherry Roubaix
Skip Navigation Links
Results
Teams
Details
Mobile Results
Aug 4 2018
HyperLink
Page 1 of 1 (35 items)
Pos
Race No
Fav
Name
Time
Category
Cat Pos
Age
Gender
Gen Pos
Team
City
State
Pace
11294Gwen Urbain01:03:3913 - 19114Female1 Traverse CityMichigan18.8 m/hr
21295John Urbain01:03:4040 - 49147Male1 Traverse CityMichigan18.8 m/hr
31008Jake Auclair01:05:1713 - 19115Male2 GrawnMichigan18.4 m/hr
41024Steven Boshaw01:05:1840 - 49240Male3 FentonMichigan18.4 m/hr
51368Maximus Jordan01:06:5813 - 19215Male4 Suttons BayMichigan17.9 m/hr
61088John Edingfield01:07:5350 - 59153Male5 Traverse CityMichigan17.7 m/hr
71177Brandon Langley01:08:3313 - 19313Male6 HowellMichigan17.5 m/hr
81147Gus Johnson01:10:0313 - 19413Male7 Ann ArborMichigan17.1 m/hr
91126Alan Heidt01:10:0460 - 69161Male8 Traverse CityMichigan17.1 m/hr
101085Dawn Duncan01:10:1440 - 49144Female2 Grand RapidsMichigan17.1 m/hr
111166Adam Kovacs01:10:1820 - 29121Male9 Traverse CityMichigan17.1 m/hr
121094Grady Ellis01:10:5112 & U110Male10 WilliamsburgMichigan16.9 m/hr
131256Griffin Schwab01:11:2312 & U212Male11 WilliamsburgMichigan16.8 m/hr
141068Ella Debruyn01:12:2012 & U111Female3 Traverse CityMichigan16.6 m/hr
151069Michael Debruyn01:12:2240 - 49343Male12 Traverse CityMichigan16.6 m/hr
161341Jamo Schimdt01:12:3812 & U311Male13 Traverse CityMichigan16.5 m/hr
171148Kristen Johnson01:12:4540 - 49247Female4 Ann ArborMichigan16.5 m/hr
181146Elizabeth Johnson01:12:4730 - 39139Female5 EmpireMichigan16.5 m/hr
191086Chris Dungey01:13:3360 - 69269Male14 LapeerMichigan16.3 m/hr
201157Jenny Kazlauskas01:13:3320 - 29125Female6 Allen ParkMichigan16.3 m/hr
211275Emilie Spalla01:13:4430 - 39236Female7 Traverse CityMichigan16.3 m/hr
221204Cale Mcnamara01:15:2212 & U49Male15 ColumbusOhio15.9 m/hr
231205Kristin Mcnamara01:15:2540 - 49341Female8 ColumbusOhio15.9 m/hr
241367Devin-Kris Deboer-Deboer01:15:48Tandem150Mixed1 Zeeland 15.8 m/hr
251366Lisa-Terry Bochenek-Bochenek01:15:50Tandem251Mixed2 Jenison 15.8 m/hr
261084Gregory Dugard01:17:0740 - 49447Male16 South Bend 15.6 m/hr
271122Maryanna Hathaway01:18:5150 - 59156Female9 Traverse CityMichigan15.2 m/hr
281258Maria Schweiss01:33:0620 - 29224Female10 Beverly HillsMichigan12.9 m/hr
291259Matthew Schweiss01:33:0820 - 29221Male17 Beverly HillsMichigan12.9 m/hr
301288Toni Toll01:51:3250 - 59253Female11 FlintMichigan10.8 m/hr
311179Jennifer Langley01:51:3340 - 49443Female12 HowellMichigan10.8 m/hr
321027Brian Boyle01:58:1460 - 69360Male18 ChicagoIllinois10.1 m/hr
331028Deborah Boyle01:58:1560 - 69163Female13 ChicagoIllinois10.1 m/hr
1035Larry BurdickNot started60 - 6963Male Mt PleasantMichigan 
1266Jim SitekDNS60 - 6964Male Traverse CityMichigan 
Page 1 of 1 (35 items)

HyperLink Copyright (c) G Vincent, 2018